Find Zhongxing 4

NORAD ID: 21833 Int'l Des: 1991-088 Owner: CHIS Country: CN operational
MEOELLIPTICALHEO_ELLIPTICAL

Live Position

Loading 3D Globe...

About Zhongxing 4

Description loading...

Upcoming Passes

Passes for default location (London). Set your location on the main map for personalized predictions.

Altitude History

Loading altitude history...

Two-Line Element Set

1 21833U 91088A 26102.90837940 .00000008 00000-0 00000-0 0 9992
2 21833 31.8679 81.5015 6568974 184.7551 162.9286 2.27643154357754
Epoch: Apr 12, 2026 • Age: 36 hours

Current Status

Altitude 16646.3 km
Velocity 4.28 km/s
Sub-Earth Point 26.62°N, 145.22°E
Launch Date Dec 28, 1991
Age 34.2 years
Type other

Technical Details

Classification Payload
Mass 460.00 kg
Dry Mass 460.00 kg
Total Mass 1040.00 kg
Length 1.60 m
Diameter 2.10 m
Span 2.10 m
Shape Cyl + Ant
Manufacturer CAST
Bus Type DFH-2
Phase Status In Orbit
Owner/State CHIS/CN

Most Searched